Location: *
(58.7167°N, 26.1833°E)
Time: 00:48:06
(UTC+00:00)

Cosmos 1703 - Pass Details

Date: 25 August 2019
Orbit: 525 x 540 km, 82.5° (Epoch: 18 September)

Event Time Altitude Azimuth Distance (km) Brightness Sun altitude
Rises 22:33:35 0° 350° (N) 2,684 8.2 -20.6°
Reaches altitude 10° 22:35:52 10° 359° (N) 1,791 7.1 -20.6°
Maximum altitude 22:39:32 37° 67° (ENE) 849 4.5 -20.5°
Enters shadow 22:40:59 27° 111° (ESE) 1,051 4.6 -20.5°
